Weather in Atamanovka

Russia / Volgograd Oblast     50°10′11″N   44°04′05″E
temp.,
°C
wind,
m/s
gust,
m/s
humid.,
%
clouds,
%
prec.,
mm/h
press.,
hPa
HPBL,
m
31 july, sat
sat3100:00+21w34733 0.3 100970
03:00+20sw367788 0.3 1009105
06:00+22wsw2671100 0.0 1009158
09:00+28wsw464898 0.0 1009808
12:00+31w5638100 0.0 10101633
15:00+33w4531100 0.1 10082757
18:00+28nw684867 0.4 1010577
21:00+23ene227112 0.6 101126
1 august, sun
sun100:00+22ene11728 0.1 101211
03:00+21e22704 0.1 101211
06:00+23ene22633 0.0 101358
09:00+30ese22395 0.0 1013788
12:00+34sse12253 0.0 10122930
15:00+35w132028 0.0 10113451
18:00+34ese352287 0.0 1011551
21:00+26ene48442 0.0 1012108
2 august, mon
mon200:00+24ese48470 0.0 1012117
03:00+22e35534 0.0 101265
06:00+24e35550 0.0 1013122
09:00+33sse442624 0.0 1012689
12:00+37s561796 0.0 10113946
15:00+36s361920 0.0 10103006
18:00+33e342488 0.0 1009276
21:00+28ese223388 0.1 101021
3 august, tue
tue300:00+25se33355 0.0 100924
03:00+25s34305 0.0 100951
06:00+26s3630100 0.0 1010113
09:00+30sw352570 0.0 1010344
12:00+37s591612 0.0 10093317
15:00+39s681021 0.0 10064424
18:00+33nnw112917 0.0 1006109
21:00+21nne5981100 0.9 1011203
4 august, wed
wed400:00+21nnw1182100 0.7 1011114
03:00+20sse1189100 1.4 101112
06:00+20nw4785100 0.2 1012267
09:00+24nnw3362100 0.4 1013723
12:00+28nnw45415 0.0 10131750
15:00+31nw553048 0.0 10122955
18:00+27n6841100 0.0 1013715
21:00+22nne3654100 0.0 1014109